Regional Weather Roundup
Issued by NWS Sterling, VA

Home | Current Version | Previous Version | Graphics & Text | Print | Product List | Glossary On
Versions: 1 2 3 4 5 6 7 8 9 10 11 12 13 14 15 16 17 18 19 20 21 22 23 24 25 26 27
000
ASUS41 KLWX 291211
RWRLWX

REGIONAL WEATHER ROUNDUP
NATIONAL WEATHER SERVICE BALTIMORE MD/WASHINGTON DC
800 AM EDT SAT APR 29 2017

Note: "FAIR" indicates few or no clouds below 12,000 feet
with no significant weather and/or obstructions to visibility.
 TC=TEMPERATURE CELSIUS

 * =Non NWS site. Station does not report precipitation (e.g. rain,
    snow, etc.), thunder, or fog.

DCZ001-MDZ009-015-VAZ040>042-051-053>054-291300-
WASHINGTON METRO

CITY           SKY/WX    TMP DP  RH WIND       PRES   REMARKS
WASHINGTON NAT CLOUDY    73  69  87 S7        30.08R
DULLES         CLOUDY    69  65  86 SW3       30.09R
ANDREWS AFB    CLOUDY    72  67  84 SW10      30.06R
FT BELVOIR     CLOUDY    72  67  82 CALM      30.08R
QUANTICO       CLOUDY    74  69  85 SW6       30.09R
COLLEGE PARK*  CLOUDY    73  66  81 W3        30.08R
LEESBURG*      CLOUDY    70  68  94 W10       30.11R
MANASSAS*        N/A     71  67  87 SW5       30.11R

$$

MDZ006>007-011-014-291300-
BALTIMORE METRO

CITY           SKY/WX    TMP DP  RH WIND       PRES   REMARKS
BWI AIRPORT    CLOUDY    73  68  84 W12       30.06R
MD SCIENCE CTR   N/A     75  65  70 MISG      30.07R
MARTIN STATE   CLOUDY    73  70  88 W8        30.06R
ANNAPOLIS      CLOUDY    75  70  84 W7        30.05R
FORT MEADE*    CLOUDY    70  66  88 SW7       30.09R

$$

MDZ012-015-019>023-291300-
MARYLAND EASTERN SHORE

CITY           SKY/WX    TMP DP  RH WIND       PRES   REMARKS
OCEAN CITY     CLOUDY    75  72  90 SW17G24   30.05F
SALISBURY      PTSUNNY   75  73  93 SW14      30.05S
BAY BRIDGE AP* PTSUNNY   73  68  83 SW8       30.06R
CAMBRIDGE*     MOSUNNY   75  72  88 SW10G17   30.06R
EASTON*        MOSUNNY   75  70  83 SW9       30.10R

$$

MDZ017>025-291300-
SOUTHERN MARYLAND

CITY           SKY/WX    TMP DP  RH WIND       PRES   REMARKS
PATUXENT RIVER CLOUDY    75  74  96 SW16G22   30.07R
ST INIGOES     CLOUDY    75  71  87 S10       30.07R
LEONARDTOWN*   CLOUDY    73  70  88 SW14      30.09R

$$

MDZ003>005-291300-
NORTH CENTRAL MARYLAND

CITY           SKY/WX    TMP DP  RH WIND       PRES   REMARKS
FREDERICK*     MOSUNNY   70  70 100 CALM      30.12R
HAGERSTOWN APT LGT RAIN  70  61  73 W15G23    30.12R
WESTMINSTER*   PTSUNNY   68  64  88 SW7       30.10R

$$

MDZ501>502-291300-
WESTERN MARYLAND

CITY           SKY/WX    TMP DP  RH WIND       PRES   REMARKS
OAKLAND*         N/A     55  55 100 SW12      30.21R
CUMBERLAND*    CLOUDY    64  61  88 S9        30.15R

$$

VAZ025>031-291300-
SHENANDOAH VALLEY

CITY           SKY/WX    TMP DP  RH WIND       PRES   REMARKS
WINCHESTER*    CLOUDY    68  59  73 SW8       30.13R
FRONT ROYAL*   CLOUDY    68  64  88 S6G17     30.13R VSB 1
LURAY*         CLOUDY    70  64  83 N16G23    30.16R
NEW MARKET*    CLOUDY    70  62  77 W8G17     30.15R
STAUNTON*      PTSUNNY   68  63  83 S5        30.17R
WAYNESBORO*    PTSUNNY   69  66  90 CALM      30.16R

$$

WVZ021-048>050-054>055-291300-
EASTERN WEST VIRGINIA PANHANDLE

CITY           SKY/WX    TMP DP  RH WIND       PRES   REMARKS
MARTINSBURG    CLOUDY    72  57  59 NW17G37   30.07R
PETERSBURG*    CLOUDY    64  62  94 S6        30.18R

$$

VAZ036>039-050-291300-
CENTRAL FOOTHILLS

CITY           SKY/WX    TMP DP  RH WIND       PRES   REMARKS
CHARLOTTESVILL CLOUDY    71  67  87 CALM      30.12R
CULPEPER*      CLOUDY    71  67  87 SW5       30.11R
ORANGE*        CLOUDY    70  64  83 W9        30.11R
GORDONSVILLE*  CLOUDY    70  67  91 SW7       30.11R
WARRENTON*     CLOUDY    72  64  77 SW6       30.10R

$$

VAZ055>057-291300-
NORTH AND CENTRAL PIEDMONT

CITY           SKY/WX    TMP DP  RH WIND       PRES   REMARKS
FREDERICKSBRG* CLOUDY    74  69  86 SW10      30.08R
STAFFORD*      CLOUDY    72  69  90 SW5       30.13R

$$

NCZ024-NYZ072-PAZ021-071-VAZ022-071-291300-
OTHER REGIONAL OBSERVATIONS

CITY           SKY/WX    TMP DP  RH WIND       PRES   REMARKS
NEW YORK CITY  CLOUDY    67  65  93 CALM      29.99F
PHILADELPHIA   CLOUDY    69  66  90 SW8       30.03R FOG
PITTSBURGH     CLOUDY    63  60  90 SW10      30.07R
ROANOKE        CLOUDY    69  64  84 CALM      30.18R
RICHMOND       CLOUDY    75  72  90 SW13      30.13R
RALEIGH        PTSUNNY   74  70  87 SW10      30.20R

$$

ANZ530>537-291300-
MARINE OBSERVATIONS

STATION/POSITION TIME  TEMP    WIND        PRES
                       AIR SEA DIR/SP/G
                 (UTC) (F)     (DEG/KT/KT) (MB)
THOMAS PT LIGHT  1200   72 60  240/ 15/ 16   N/A
BALT KEY BRIDGE  1148   72     250/ 11/ 13 1017.6R
COVE POINT       1148   75     250/ 19/ 25 1018.1R
LEWISETTA        1148   75 69  230/ 17/ 24 1017.9F
SOLOMONS ISLAND  1136   73 62  220/ 12/ 18   N/A
PINEY POINT      1148          240/  6/  9   N/A

$$





USA.gov is the U.S. government's official web portal to all federal, state and local government web resources and services.